Find Fourier

NORAD ID: 65298 Int'l Des: 2025-185 Owner: ESPACE Country: RW operational
LEOCIRCULARRETROGRADESSO

Current View

Loading 3D Globe...

About Fourier

Description loading...

Upcoming Passes

Passes for default location (London). Set your location on the main map for personalized predictions.

Altitude History

Loading altitude history...

Two-Line Element Set

1 65298U 25185B 26149.20261350 .00013414 00000-0 18179-2 0 9993
2 65298 97.9650 232.7572 0016954 142.7240 217.5151 14.78945819 41037
Epoch: May 29, 2026 • Age: 25 hours

Current Status

Altitude 640.2 km
Velocity 7.54 km/s
Sub-Earth Point 43.74°N, 102.9°W
Launch Date Aug 23, 2025
Age 0.7 years
Type other

Technical Details

Classification Payload
Mass 30.00 kg
Dry Mass 30.00 kg
Total Mass 30.00 kg
Length 0.60 m
Diameter 0.40 m
Span 2.00 m
Shape Box+ pan
Manufacturer ESPACE
Bus Type Calistus
Phase Status In Orbit
Owner/State ESPACE/RW

Most Searched